| time (UTC) | temp F | wind direction | speed MPH | gust MPH | rain 1hr in | rain 24hr in | rain mn in | humidity % | barometer mb |
| 20260506013703 | 47 | 27 | 3.0 | 6.0 | 0.19 | 0.06 | 0.06 | 91 | 1009.5 |
| 20260506013200 | 48 | 69 | 5.0 | 6.0 | 0.17 | 0.05 | 0.05 | 90 | 1009.7 |
| 20260506012656 | 48 | 71 | 2.0 | 2.0 | 0.05 | 0.03 | 0.03 | 91 | 1009.6 |
| 20260506012153 | 49 | 72 | 2.0 | 6.0 | 0.00 | 0.02 | 0.02 | 90 | 1009.9 |
| 20260506011651 | 50 | 18 | 5.0 | 7.0 | 0.00 | 0.02 | 0.02 | 89 | 1009.6 |
| 20260506011147 | 52 | 70 | 4.0 | 7.0 | 0.00 | 0.02 | 0.02 | 88 | 1009.4 |
| 20260506010646 | 53 | 53 | 3.0 | 4.0 | 0.00 | 0.02 | 0.02 | 89 | 1009.6 |
| 20260506010142 | 53 | 2 | 0.0 | 3.0 | 0.00 | 0.02 | 0.02 | 89 | 1009.4 |
| 20260506005639 | 54 | 336 | 3.0 | 4.0 | 0.00 | 0.02 | 0.02 | 89 | 1009.4 |
| 20260506005136 | 54 | 322 | 3.0 | 4.0 | 0.00 | 0.02 | 0.02 | 88 | 1009.2 |
| 20260506004632 | 55 | 36 | 2.0 | 7.0 | 0.00 | 0.02 | 0.02 | 87 | 1009.1 |
| 20260506004130 | 55 | 334 | 1.0 | 2.0 | 0.00 | 0.02 | 0.02 | 88 | 1009.1 |
| 20260506003626 | 55 | 32 | 1.0 | 1.0 | 0.00 | 0.02 | 0.02 | 88 | 1009.1 |
| 20260506003122 | 55 | 351 | 1.0 | 2.0 | 0.00 | 0.02 | 0.02 | 87 | 1008.8 |
| 20260506002618 | 56 | 328 | 1.0 | 1.0 | 0.00 | 0.02 | 0.02 | 87 | 1008.7 |
| 20260506002114 | 56 | 36 | 1.0 | 1.0 | 0.00 | 0.02 | 0.02 | 86 | 1008.7 |
| 20260506001610 | 56 | 86 | 1.0 | 1.0 | 0.00 | 0.02 | 0.02 | 85 | 1008.5 |
| 20260506001108 | 56 | 335 | 0.0 | 2.0 | 0.07 | 0.02 | 0.02 | 84 | 1008.5 |
| 20260506000605 | 57 | 331 | 1.0 | 2.0 | 0.07 | 0.02 | 0.02 | 83 | 1008.5 |
| 20260505235600 | 59 | 69 | 2.0 | 7.0 | 0.00 | 0.01 | 0.01 | 77 | 1008.5 |
| 20260505235057 | 60 | 289 | 9.0 | 11.0 | 0.00 | 0.01 | 0.01 | 75 | 1008.5 |
| 20260505234554 | 60 | 209 | 1.0 | 4.0 | 0.00 | 0.01 | 0.01 | 75 | 1007.9 |
| 20260505234050 | 61 | 3 | 2.0 | 4.0 | 0.00 | 0.01 | 0.01 | 77 | 1008.7 |
| 20260505233548 | 61 | 315 | 0.0 | 2.0 | 0.00 | 0.01 | 0.01 | 76 | 1007.9 |
| 20260505233045 | 62 | 68 | 1.0 | 7.0 | 0.00 | 0.01 | 0.01 | 74 | 1007.7 |
| 20260505232543 | 61 | 351 | 3.0 | 6.0 | 0.00 | 0.01 | 0.01 | 76 | 1007.3 |
| 20260505232040 | 62 | 48 | 2.0 | 2.0 | 0.00 | 0.01 | 0.01 | 77 | 1007.4 |
| 20260505231537 | 62 | 24 | 0.0 | 1.0 | 0.00 | 0.01 | 0.01 | 74 | 1007.4 |
| 20260505231036 | 62 | 243 | 2.0 | 2.0 | 0.00 | 0.01 | 0.01 | 73 | 1007.7 |
| 20260505230533 | 62 | 157 | 0.0 | 1.0 | 0.00 | 0.01 | 0.01 | 73 | 1007.3 |
| 20260505230029 | 62 | 205 | 0.0 | 2.0 | 0.00 | 0.01 | 0.01 | 74 | 1007.4 |
| 20260505225526 | 61 | 140 | 2.0 | 2.0 | 0.00 | 0.01 | 0.01 | 75 | 1007.4 |
| 20260505225022 | 62 | 89 | 1.0 | 1.0 | 0.00 | 0.01 | 0.01 | 74 | 1007.2 |
| 20260505224519 | 62 | 316 | 4.0 | 4.0 | 0.00 | 0.01 | 0.01 | 71 | 1007.3 |
| 20260505224017 | 62 | 199 | 4.0 | 8.0 | 0.00 | 0.01 | 0.01 | 71 | 1007.1 |
| 20260505223514 | 63 | 216 | 7.0 | 13.0 | 0.00 | 0.01 | 0.01 | 69 | 1007.0 |
| 20260505223010 | 64 | 181 | 10.0 | 16.0 | 0.00 | 0.01 | 0.01 | 67 | 1007.2 |
| 20260505222506 | 66 | 348 | 4.0 | 9.0 | 0.00 | 0.01 | 0.01 | 63 | 1007.1 |
| 20260505222002 | 68 | 266 | 2.0 | 6.0 | 0.00 | 0.01 | 0.01 | 58 | 1006.8 |
| 20260505221459 | 67 | 228 | 7.0 | 8.0 | 0.00 | 0.01 | 0.01 | 54 | 1006.5 |
| 20260505220956 | 67 | 221 | 1.0 | 4.0 | 0.00 | 0.01 | 0.01 | 57 | 1006.2 |
| 20260505220453 | 68 | 248 | 1.0 | 1.0 | 0.00 | 0.01 | 0.01 | 58 | 1006.1 |
| 20260505215951 | 68 | 212 | 10.0 | 13.0 | 0.00 | 0.01 | 0.01 | 54 | 1006.4 |
| 20260505215449 | 68 | 300 | 0.0 | 1.0 | 0.00 | 0.01 | 0.01 | 58 | 1006.3 |
| 20260505214946 | 68 | 298 | 3.0 | 3.0 | 0.00 | 0.01 | 0.01 | 55 | 1006.3 |
| 20260505214444 | 68 | 275 | 3.0 | 7.0 | 0.00 | 0.01 | 0.01 | 56 | 1006.4 |
| 20260505213941 | 69 | 300 | 3.0 | 4.0 | 0.00 | 0.01 | 0.01 | 55 | 1006.1 |
| 20260505213439 | 69 | 267 | 1.0 | 2.0 | 0.00 | 0.01 | 0.01 | 56 | 1006.3 |
| 20260505212935 | 69 | 297 | 4.0 | 4.0 | 0.00 | 0.01 | 0.01 | 55 | 1006.1 |
| 20260505212432 | 69 | 310 | 2.0 | 4.0 | 0.00 | 0.01 | 0.01 | 55 | 1006.1 |
| 20260505211928 | 69 | 272 | 2.0 | 6.0 | 0.00 | 0.01 | 0.01 | 57 | 1006.0 |
| 20260505211426 | 68 | 300 | 2.0 | 7.0 | 0.00 | 0.01 | 0.01 | 57 | 1006.0 |
| 20260505210922 | 68 | 319 | 2.0 | 4.0 | 0.00 | 0.01 | 0.01 | 58 | 1005.7 |
| 20260505210419 | 68 | 335 | 4.0 | 4.0 | 0.00 | 0.01 | 0.01 | 59 | 1005.9 |
| 20260505205916 | 69 | 305 | 4.0 | 4.0 | 0.00 | 0.01 | 0.01 | 57 | 1005.8 |
| 20260505205415 | 69 | 290 | 4.0 | 6.0 | 0.00 | 0.01 | 0.01 | 57 | 1005.8 |
| 20260505204911 | 69 | 325 | 2.0 | 7.0 | 0.00 | 0.01 | 0.01 | 58 | 1005.8 |
| 20260505204409 | 70 | 309 | 5.0 | 11.0 | 0.00 | 0.01 | 0.01 | 55 | 1006.1 |
| 20260505203906 | 70 | 316 | 5.0 | 8.0 | 0.00 | 0.01 | 0.01 | 54 | 1006.1 |
| 20260505203402 | 71 | 243 | 8.0 | 14.0 | 0.00 | 0.01 | 0.01 | 52 | 1006.0 |
| 20260505202858 | 71 | 273 | 4.0 | 9.0 | 0.00 | 0.01 | 0.01 | 51 | 1006.1 |
| 20260505202355 | 70 | 279 | 7.0 | 13.0 | 0.00 | 0.01 | 0.01 | 51 | 1006.1 |
| 20260505201851 | 70 | 230 | 13.0 | 15.0 | 0.00 | 0.01 | 0.01 | 54 | 1006.3 |
| 20260505201349 | 70 | 228 | 17.0 | 24.0 | 0.00 | 0.01 | 0.01 | 52 | 1006.2 |
| 20260505200847 | 70 | 220 | 17.0 | 18.0 | 0.00 | 0.01 | 0.01 | 53 | 1006.1 |
| 20260505200343 | 70 | 227 | 16.0 | 18.0 | 0.00 | 0.01 | 0.01 | 54 | 1006.0 |
| 20260505195839 | 70 | 245 | 11.0 | 16.0 | 0.00 | 0.01 | 0.01 | 54 | 1006.1 |
| 20260505195337 | 69 | 246 | 13.0 | 17.0 | 0.00 | 0.01 | 0.01 | 55 | 1006.5 |
| 20260505194833 | 69 | 211 | 17.0 | 22.0 | 0.00 | 0.01 | 0.01 | 55 | 1006.2 |
| 20260505194331 | 69 | 229 | 20.0 | 23.0 | 0.00 | 0.01 | 0.01 | 54 | 1006.4 |
| 20260505193832 | 70 | 215 | 22.0 | 25.0 | 0.00 | 0.01 | 0.01 | 52 | 1006.2 |
| 20260505193330 | 69 | 221 | 19.0 | 22.0 | 0.00 | 0.01 | 0.01 | 53 | 1006.3 |
| 20260505192827 | 69 | 267 | 15.0 | 19.0 | 0.00 | 0.01 | 0.01 | 52 | 1006.3 |
| 20260505192325 | 69 | 187 | 12.0 | 21.0 | 0.00 | 0.01 | 0.01 | 54 | 1006.1 |
| 20260505191823 | 68 | 222 | 13.0 | 18.0 | 0.00 | 0.01 | 0.01 | 54 | 1006.3 |
| 20260505191321 | 68 | 212 | 12.0 | 19.0 | 0.00 | 0.01 | 0.01 | 53 | 1006.3 |
| 20260505190817 | 68 | 235 | 7.0 | 16.0 | 0.00 | 0.01 | 0.01 | 56 | 1006.1 |
| 20260505190313 | 68 | 209 | 12.0 | 19.0 | 0.00 | 0.01 | 0.01 | 53 | 1006.3 |
| 20260505185809 | 68 | 225 | 15.0 | 24.0 | 0.00 | 0.01 | 0.01 | 53 | 1006.4 |
| 20260505185305 | 68 | 238 | 4.0 | 8.0 | 0.00 | 0.01 | 0.01 | 60 | 1006.5 |
| 20260505184801 | 68 | 301 | 4.0 | 4.0 | 0.00 | 0.01 | 0.01 | 61 | 1006.3 |
| 20260505184259 | 67 | 226 | 2.0 | 3.0 | 0.00 | 0.01 | 0.01 | 64 | 1006.6 |
| 20260505183756 | 68 | 207 | 3.0 | 4.0 | 0.00 | 0.01 | 0.01 | 62 | 1006.4 |
| 20260505183253 | 67 | 250 | 1.0 | 3.0 | 0.00 | 0.01 | 0.01 | 62 | 1006.5 |
| 20260505182749 | 68 | 182 | 3.0 | 6.0 | 0.00 | 0.01 | 0.01 | 61 | 1006.4 |
| 20260505182246 | 66 | 236 | 2.0 | 4.0 | 0.00 | 0.01 | 0.01 | 63 | 1006.1 |
| 20260505181742 | 66 | 291 | 2.0 | 6.0 | 0.00 | 0.01 | 0.01 | 65 | 1006.3 |
| 20260505181240 | 65 | 303 | 3.0 | 4.0 | 0.00 | 0.01 | 0.01 | 66 | 1006.1 |
| 20260505180737 | 65 | 243 | 4.0 | 6.0 | 0.00 | 0.01 | 0.01 | 68 | 1006.1 |
| 20260505180233 | 64 | 339 | 1.0 | 7.0 | 0.00 | 0.01 | 0.01 | 68 | 1006.2 |
| 20260505175730 | 64 | 227 | 6.0 | 7.0 | 0.00 | 0.01 | 0.01 | 68 | 1006.2 |
| 20260505175226 | 63 | 318 | 9.0 | 10.0 | 0.00 | 0.01 | 0.01 | 69 | 1006.5 |
| 20260505174723 | 63 | 317 | 8.0 | 18.0 | 0.00 | 0.01 | 0.01 | 68 | 1006.5 |
| 20260505174220 | 65 | 298 | 15.0 | 18.0 | 0.00 | 0.01 | 0.01 | 64 | 1006.6 |
| 20260505173716 | 68 | 84 | 11.0 | 18.0 | 0.00 | 0.01 | 0.01 | 53 | 1006.4 |
| 20260505173213 | 68 | 244 | 15.0 | 27.0 | 0.00 | 0.01 | 0.01 | 50 | 1006.3 |
| 20260505172710 | 68 | 244 | 12.0 | 16.0 | 0.00 | 0.01 | 0.01 | 50 | 1006.1 |
| 20260505172207 | 68 | 221 | 13.0 | 23.0 | 0.00 | 0.01 | 0.01 | 49 | 1006.1 |
| 20260505171706 | 69 | 224 | 17.0 | 25.0 | 0.00 | 0.01 | 0.01 | 49 | 1006.1 |
| 20260505171204 | 69 | 233 | 20.0 | 25.0 | 0.00 | 0.01 | 0.01 | 49 | 1006.1 |
| 20260505170700 | 69 | 230 | 19.0 | 27.0 | 0.00 | 0.01 | 0.01 | 49 | 1006.1 |
| 20260505170158 | 69 | 215 | 20.0 | 26.0 | 0.00 | 0.01 | 0.01 | 50 | 1006.2 |
| 20260505165657 | 69 | 231 | 14.0 | 19.0 | 0.00 | 0.01 | 0.01 | 50 | 1006.3 |
| 20260505165154 | 69 | 212 | 15.0 | 25.0 | 0.00 | 0.01 | 0.01 | 51 | 1006.4 |
| 20260505164649 | 68 | 223 | 16.0 | 21.0 | 0.00 | 0.01 | 0.01 | 51 | 1006.4 |
| 20260505164147 | 68 | 235 | 22.0 | 26.0 | 0.00 | 0.01 | 0.01 | 50 | 1006.6 |
| 20260505163645 | 68 | 234 | 11.0 | 21.0 | 0.00 | 0.01 | 0.01 | 52 | 1006.5 |
| 20260505163143 | 68 | 284 | 20.0 | 27.0 | 0.00 | 0.01 | 0.01 | 50 | 1006.3 |
| 20260505162640 | 68 | 219 | 13.0 | 23.0 | 0.00 | 0.01 | 0.01 | 52 | 1006.3 |
| 20260505162138 | 68 | 222 | 9.0 | 18.0 | 0.00 | 0.01 | 0.01 | 52 | 1006.1 |
| 20260505161634 | 68 | 252 | 18.0 | 21.0 | 0.00 | 0.01 | 0.01 | 51 | 1005.8 |
| 20260505161132 | 68 | 246 | 13.0 | 25.0 | 0.00 | 0.01 | 0.01 | 51 | 1005.9 |
| 20260505160629 | 68 | 219 | 13.0 | 17.0 | 0.00 | 0.01 | 0.01 | 52 | 1005.7 |
| 20260505160127 | 68 | 232 | 14.0 | 19.0 | 0.00 | 0.01 | 0.01 | 52 | 1005.6 |
| 20260505153107 | 68 | 232 | 17.0 | 19.0 | 0.00 | 0.01 | 0.01 | 53 | 1006.3 |
| 20260505152603 | 68 | 222 | 16.0 | 23.0 | 0.00 | 0.01 | 0.01 | 54 | 1006.3 |
| 20260505152058 | 68 | 249 | 9.0 | 16.0 | 0.00 | 0.01 | 0.01 | 55 | 1006.2 |
| 20260505151553 | 68 | 251 | 11.0 | 21.0 | 0.00 | 0.01 | 0.01 | 55 | 1006.3 |
| 20260505151051 | 68 | 228 | 11.0 | 23.0 | 0.00 | 0.01 | 0.01 | 55 | 1006.2 |
| 20260505150547 | 68 | 235 | 17.0 | 22.0 | 0.00 | 0.01 | 0.01 | 54 | 1006.3 |
| 20260505140513 | 67 | 223 | 13.0 | 22.0 | 0.00 | 0.01 | 0.01 | 55 | 1005.8 |
| 20260505124926 | 64 | 198 | 10.0 | 19.0 | 0.00 | 0.01 | 0.01 | 61 | 1006.0 |
| 20260505124423 | 64 | 225 | 12.0 | 19.0 | 0.00 | 0.01 | 0.01 | 61 | 1006.0 |
| 20260505123919 | 63 | 207 | 11.0 | 16.0 | 0.00 | 0.01 | 0.01 | 61 | 1006.0 |
| 20260505123416 | 63 | 198 | 16.0 | 19.0 | 0.00 | 0.01 | 0.01 | 62 | 1006.1 |
| 20260505122911 | 63 | 226 | 11.0 | 16.0 | 0.00 | 0.01 | 0.01 | 62 | 1005.9 |
| 20260505122409 | 63 | 234 | 17.0 | 24.0 | 0.00 | 0.01 | 0.01 | 61 | 1006.2 |
| 20260505121906 | 63 | 194 | 8.0 | 17.0 | 0.00 | 0.01 | 0.01 | 63 | 1006.1 |
| 20260505121403 | 62 | 217 | 12.0 | 21.0 | 0.00 | 0.01 | 0.01 | 63 | 1006.1 |
| 20260505120858 | 62 | 217 | 11.0 | 21.0 | 0.00 | 0.01 | 0.01 | 63 | 1006.4 |
| 20260505120355 | 62 | 216 | 9.0 | 14.0 | 0.00 | 0.01 | 0.01 | 64 | 1006.4 |
| 20260505115854 | 62 | 238 | 9.0 | 16.0 | 0.00 | 0.01 | 0.01 | 65 | 1006.2 |
| 20260505115351 | 62 | 222 | 11.0 | 17.0 | 0.00 | 0.01 | 0.01 | 65 | 1006.1 |
| 20260505114849 | 62 | 197 | 13.0 | 16.0 | 0.00 | 0.01 | 0.01 | 65 | 1006.1 |
| 20260505114345 | 61 | 193 | 9.0 | 13.0 | 0.00 | 0.01 | 0.01 | 65 | 1006.1 |
| 20260505113841 | 61 | 227 | 9.0 | 13.0 | 0.00 | 0.01 | 0.01 | 66 | 1006.0 |
| 20260505113338 | 61 | 202 | 13.0 | 19.0 | 0.00 | 0.01 | 0.01 | 66 | 1006.1 |
| 20260505112834 | 61 | 178 | 9.0 | 10.0 | 0.00 | 0.01 | 0.01 | 66 | 1006.0 |
| 20260505112332 | 60 | 206 | 9.0 | 18.0 | 0.00 | 0.01 | 0.01 | 66 | 1006.0 |
| 20260505111827 | 60 | 184 | 6.0 | 8.0 | 0.00 | 0.01 | 0.01 | 68 | 1006.1 |
| 20260505111323 | 60 | 176 | 8.0 | 19.0 | 0.00 | 0.01 | 0.01 | 66 | 1006.1 |
| 20260505110819 | 60 | 143 | 11.0 | 21.0 | 0.00 | 0.01 | 0.01 | 69 | 1006.0 |
| 20260505110317 | 60 | 147 | 7.0 | 22.0 | 0.00 | 0.01 | 0.01 | 68 | 1005.9 |
| 20260505101751 | 59 | 222 | 9.0 | 11.0 | 0.00 | 0.01 | 0.01 | 73 | 1005.4 |
| 20260505101246 | 59 | 180 | 11.0 | 14.0 | 0.00 | 0.01 | 0.01 | 71 | 1005.1 |
| 20260505100743 | 59 | 197 | 7.0 | 16.0 | 0.00 | 0.01 | 0.01 | 71 | 1005.4 |
| 20260505100240 | 58 | 179 | 7.0 | 18.0 | 0.00 | 0.01 | 0.01 | 73 | 1005.1 |
| 20260505095735 | 58 | 171 | 9.0 | 15.0 | 0.00 | 0.01 | 0.01 | 73 | 1005.4 |
| 20260505095234 | 58 | 205 | 9.0 | 13.0 | 0.00 | 0.01 | 0.01 | 73 | 1005.1 |
| 20260505094729 | 59 | 149 | 7.0 | 14.0 | 0.00 | 0.01 | 0.01 | 71 | 1005.1 |
| 20260505094225 | 59 | 202 | 9.0 | 13.0 | 0.00 | 0.01 | 0.01 | 71 | 1005.4 |
| 20260505093722 | 59 | 205 | 11.0 | 14.0 | 0.00 | 0.01 | 0.01 | 71 | 1005.4 |
| 20260505093219 | 60 | 216 | 9.0 | 14.0 | 0.00 | 0.01 | 0.01 | 70 | 1005.5 |
| 20260505092716 | 60 | 236 | 12.0 | 15.0 | 0.00 | 0.01 | 0.01 | 70 | 1005.4 |
| 20260505092215 | 59 | 187 | 10.0 | 11.0 | 0.05 | 0.01 | 0.01 | 72 | 1005.5 |
| 20260505091711 | 60 | 225 | 10.0 | 21.0 | 0.05 | 0.01 | 0.01 | 71 | 1005.9 |
| 20260505091210 | 60 | 238 | 11.0 | 18.0 | 0.00 | 0.00 | 0.00 | 67 | 1006.0 |
| 20260505090707 | 62 | 240 | 9.0 | 13.0 | 0.00 | 0.00 | 0.00 | 63 | 1005.9 |
| 20260505090205 | 62 | 222 | 11.0 | 18.0 | 0.00 | 0.00 | 0.00 | 61 | 1005.7 |
| 20260505085702 | 62 | 230 | 15.0 | 24.0 | 0.00 | 0.00 | 0.00 | 60 | 1005.9 |
| 20260505085200 | 62 | 237 | 15.0 | 19.0 | 0.00 | 0.00 | 0.00 | 61 | 1005.8 |
| 20260505084657 | 61 | 209 | 15.0 | 18.0 | 0.00 | 0.00 | 0.00 | 61 | 1005.5 |
| 20260505084156 | 61 | 222 | 14.0 | 22.0 | 0.00 | 0.00 | 0.00 | 62 | 1005.4 |
| 20260505083653 | 61 | 204 | 11.0 | 15.0 | 0.00 | 0.00 | 0.00 | 62 | 1005.4 |
| 20260505083149 | 61 | 214 | 10.0 | 15.0 | 0.00 | 0.00 | 0.00 | 61 | 1005.4 |
| 20260505082645 | 61 | 203 | 9.0 | 19.0 | 0.00 | 0.00 | 0.00 | 61 | 1005.4 |
| 20260505082142 | 61 | 211 | 11.0 | 16.0 | 0.00 | 0.00 | 0.00 | 60 | 1005.1 |
| 20260505081638 | 61 | 193 | 9.0 | 15.0 | 0.00 | 0.00 | 0.00 | 61 | 1005.0 |
| 20260505081136 | 61 | 173 | 9.0 | 14.0 | 0.00 | 0.00 | 0.00 | 61 | 1005.2 |
| 20260505080633 | 61 | 206 | 8.0 | 13.0 | 0.00 | 0.00 | 0.00 | 61 | 1005.2 |
| 20260505080129 | 61 | 207 | 9.0 | 15.0 | 0.00 | 0.00 | 0.00 | 61 | 1005.4 |
| 20260505075625 | 61 | 212 | 11.0 | 11.0 | 0.00 | 0.00 | 0.00 | 61 | 1005.1 |
| 20260505075122 | 61 | 219 | 5.0 | 9.0 | 0.00 | 0.00 | 0.00 | 62 | 1005.2 |
| 20260505074619 | 61 | 212 | 9.0 | 13.0 | 0.00 | 0.00 | 0.00 | 63 | 1005.5 |
| 20260505074116 | 61 | 214 | 5.0 | 13.0 | 0.00 | 0.00 | 0.00 | 63 | 1005.6 |
| 20260505073614 | 61 | 234 | 8.0 | 10.0 | 0.00 | 0.00 | 0.00 | 62 | 1005.4 |
| 20260505073112 | 60 | 210 | 6.0 | 8.0 | 0.00 | 0.00 | 0.00 | 63 | 1005.4 |
| 20260505072607 | 60 | 193 | 4.0 | 7.0 | 0.00 | 0.00 | 0.00 | 63 | 1005.5 |
| 20260505072104 | 60 | 197 | 3.0 | 4.0 | 0.00 | 0.00 | 0.00 | 63 | 1005.7 |
| 20260505071559 | 61 | 269 | 2.0 | 8.0 | 0.00 | 0.00 | 0.00 | 62 | 1005.7 |
| 20260505071057 | 61 | 202 | 6.0 | 9.0 | 0.00 | 0.00 | 0.00 | 61 | 1005.5 |
| 20260505070554 | 61 | 207 | 11.0 | 13.0 | 0.00 | 0.00 | 0.00 | 60 | 1005.4 |
| 20260505070050 | 61 | 206 | 9.0 | 13.0 | 0.00 | 0.00 | 0.00 | 60 | 1005.2 |
| 20260505065546 | 61 | 210 | 6.0 | 11.0 | 0.00 | 0.00 | 0.00 | 61 | 1005.6 |
| 20260505065043 | 61 | 200 | 9.0 | 10.0 | 0.00 | 0.00 | 0.00 | 61 | 1005.7 |
| 20260505064540 | 61 | 196 | 9.0 | 9.0 | 0.00 | 0.00 | 0.00 | 61 | 1005.5 |
| 20260505064038 | 62 | 215 | 6.0 | 10.0 | 0.00 | 0.00 | 0.00 | 60 | 1005.8 |
| 20260505063535 | 62 | 203 | 10.0 | 11.0 | 0.00 | 0.00 | 0.00 | 60 | 1005.8 |
| 20260505063031 | 62 | 177 | 10.0 | 15.0 | 0.00 | 0.00 | 0.00 | 59 | 1005.6 |
| 20260505062528 | 62 | 185 | 8.0 | 11.0 | 0.00 | 0.00 | 0.00 | 60 | 1005.5 |
| 20260505062025 | 62 | 205 | 12.0 | 16.0 | 0.00 | 0.00 | 0.00 | 59 | 1005.7 |
| 20260505061523 | 62 | 202 | 10.0 | 14.0 | 0.00 | 0.00 | 0.00 | 59 | 1005.6 |
| 20260505061020 | 62 | 200 | 9.0 | 11.0 | 0.00 | 0.00 | 0.00 | 59 | 1005.5 |
| 20260505060518 | 62 | 214 | 9.0 | 14.0 | 0.00 | 0.00 | 0.00 | 59 | 1005.4 |
| 20260505060014 | 62 | 232 | 8.0 | 15.0 | 0.00 | 0.00 | 0.00 | 59 | 1005.6 |
| 20260505055509 | 62 | 213 | 9.0 | 14.0 | 0.00 | 0.00 | 0.00 | 59 | 1005.5 |
| 20260505055006 | 62 | 197 | 9.0 | 11.0 | 0.00 | 0.00 | 0.00 | 59 | 1005.5 |
| 20260505054504 | 62 | 186 | 8.0 | 13.0 | 0.00 | 0.00 | 0.00 | 59 | 1005.6 |
| 20260505054002 | 62 | 201 | 11.0 | 16.0 | 0.00 | 0.00 | 0.00 | 59 | 1005.7 |
| 20260505053458 | 62 | 224 | 11.0 | 15.0 | 0.00 | 0.00 | 0.00 | 59 | 1005.9 |
| 20260505052955 | 61 | 218 | 8.0 | 14.0 | 0.00 | 0.00 | 0.00 | 59 | 1005.9 |
| 20260505052452 | 60 | 209 | 6.0 | 10.0 | 0.00 | 0.00 | 0.00 | 60 | 1005.9 |
| 20260505051949 | 59 | 172 | 3.0 | 4.0 | 0.00 | 0.00 | 0.00 | 62 | 1005.8 |
| 20260505051446 | 58 | 133 | 2.0 | 3.0 | 0.00 | 0.00 | 0.00 | 63 | 1005.8 |
| 20260505050944 | 58 | 220 | 3.0 | 3.0 | 0.00 | 0.00 | 0.00 | 63 | 1006.2 |
| 20260505050443 | 59 | 204 | 2.0 | 2.0 | 0.00 | 0.00 | 0.00 | 63 | 1006.2 |
| 20260505041410 | 63 | 238 | 7.0 | 9.0 | 0.00 | 0.00 | 0.00 | 54 | 1006.1 |
| 20260505040907 | 63 | 217 | 8.0 | 10.0 | 0.00 | 0.00 | 0.00 | 53 | 1006.1 |
| 20260505040405 | 63 | 221 | 9.0 | 15.0 | 0.00 | 0.00 | 0.00 | 52 | 1006.0 |
| 20260505035901 | 63 | 246 | 12.0 | 14.0 | 0.00 | 0.00 | 0.00 | 52 | 1005.9 |
| 20260505035357 | 63 | 233 | 6.0 | 13.0 | 0.00 | 0.00 | 0.00 | 51 | 1005.9 |
| 20260505034855 | 63 | 238 | 8.0 | 14.0 | 0.00 | 0.00 | 0.00 | 50 | 1006.0 |
| 20260505034351 | 63 | 211 | 13.0 | 15.0 | 0.00 | 0.00 | 0.00 | 49 | 1005.9 |
| 20260505033848 | 64 | 212 | 11.0 | 19.0 | 0.00 | 0.00 | 0.00 | 48 | 1005.7 |
| 20260505033345 | 64 | 222 | 9.0 | 14.0 | 0.00 | 0.00 | 0.00 | 47 | 1005.8 |
| 20260505032843 | 64 | 226 | 16.0 | 18.0 | 0.00 | 0.00 | 0.00 | 46 | 1005.7 |
| 20260505032339 | 64 | 204 | 12.0 | 18.0 | 0.00 | 0.00 | 0.00 | 46 | 1005.8 |
| 20260505031836 | 64 | 198 | 7.0 | 18.0 | 0.00 | 0.00 | 0.00 | 45 | 1005.7 |
| 20260505031333 | 64 | 205 | 16.0 | 19.0 | 0.00 | 0.00 | 0.00 | 44 | 1005.8 |
| 20260505030830 | 64 | 202 | 10.0 | 13.0 | 0.00 | 0.00 | 0.00 | 43 | 1005.8 |
| 20260505030326 | 64 | 221 | 9.0 | 13.0 | 0.00 | 0.00 | 0.00 | 43 | 1005.8 |
| 20260505025822 | 65 | 199 | 8.0 | 10.0 | 0.00 | 0.00 | 0.00 | 43 | 1005.8 |
| 20260505025320 | 65 | 187 | 11.0 | 15.0 | 0.00 | 0.00 | 0.00 | 42 | 1005.9 |
| 20260505024818 | 65 | 204 | 8.0 | 13.0 | 0.00 | 0.00 | 0.00 | 42 | 1005.8 |
| 20260505024315 | 65 | 213 | 9.0 | 11.0 | 0.00 | 0.00 | 0.00 | 41 | 1005.7 |
| 20260505023812 | 65 | 209 | 10.0 | 14.0 | 0.00 | 0.00 | 0.00 | 41 | 1005.7 |
| 20260505023309 | 65 | 221 | 8.0 | 14.0 | 0.00 | 0.00 | 0.00 | 41 | 1006.0 |
| 20260505022807 | 65 | 200 | 11.0 | 15.0 | 0.00 | 0.00 | 0.00 | 41 | 1006.0 |
| 20260505022304 | 65 | 215 | 6.0 | 13.0 | 0.00 | 0.00 | 0.00 | 42 | 1006.2 |
| 20260505021800 | 65 | 224 | 12.0 | 15.0 | 0.00 | 0.00 | 0.00 | 41 | 1006.1 |
| 20260505021257 | 65 | 221 | 8.0 | 13.0 | 0.00 | 0.00 | 0.00 | 41 | 1005.9 |
| 20260505020753 | 65 | 221 | 9.0 | 13.0 | 0.00 | 0.00 | 0.00 | 40 | 1006.1 |
| 20260505020248 | 65 | 224 | 8.0 | 11.0 | 0.00 | 0.00 | 0.00 | 40 | 1006.1 |
| 20260505015746 | 65 | 229 | 11.0 | 13.0 | 0.00 | 0.00 | 0.00 | 40 | 1006.0 |
| 20260505015242 | 65 | 220 | 9.0 | 15.0 | 0.00 | 0.00 | 0.00 | 39 | 1006.1 |
| 20260505014740 | 65 | 184 | 6.0 | 11.0 | 0.00 | 0.00 | 0.00 | 39 | 1006.3 |
| 20260505014237 | 65 | 212 | 9.0 | 13.0 | 0.00 | 0.00 | 0.00 | 39 | 1006.2 |